Flag for Germany Weather past 2 weeks in Lübbecke, North Rhine-Westphalia, Germany

Now
61 °F

Sprinkles. Broken clouds.


Feels Like: 61 °F
Forecast: 47 / 56 °F
Wind: 10 mph from North

Location: Bueckeburg

Current Time: Sep 21, 2014 at 2:11:34 PM

Latest Report: Sep 21, 2014 at 1:20 PM


Visibility: N/A

Pressure: 29.95 "Hg

Humidity: 83%

Dew point: 55 °F

Location of LübbeckeLocation

Historic Weather in Lübbecke — Graph

°F

Lübbecke temperature yesterday

Maximum temperature yesterday: 72 °F (at 3:20 PM)
Minimum temperature yesterday: 63 °F (at 2:20 AM)
Average temperature yesterday: 65 °F

Past Weeks' High & Low Weather Summary

 TemperatureHumidityPressure
High79 °F (Sep 18, 4:20 PM)100% (Sep 7, 2:20 AM)30.24 "Hg (Sep 7, 2:20 AM)
Low48 °F (Sep 12, 1:20 AM)50% (Sep 17, 3:20 PM)29.86 "Hg (Sep 6, 4:20 PM)
Average62 °F84%30.02 "Hg
* Reported Sep 6 12:20 PM — Sep 21 12:20 PM, Lübbecke, Weather by CustomWeather, © 2014

Note: Actual official high and low records may vary slightly from our data, if they occured in-between our weather recording intervals... More about our weather records

Advertising

Lübbecke weather history for previous 24 hours

 ConditionsComfort  
Time TempWeatherWind HumidityBarometerVisibility
12:20 PM
Sep 21
61 °FBroken clouds.7 mph83%29.95 "HgN/A
11:20 AM61 °FBroken clouds.7 mph88%29.95 "HgN/A
10:20 AM61 °FFog.7 mph94%29.95 "Hg2 mi
9:20 AM61 °FLight rain. Fog.5 mph94%29.92 "Hg1 mi
8:20 AM61 °FFog.6 mph94%29.92 "Hg1 mi
7:52 AM61 °FFog.6 mph94%29.92 "Hg1 mi
7:20 AM61 °FFog.6 mph94%29.92 "Hg1 mi
6:20 AM61 °FDrizzle. Fog.5 mph94%29.92 "Hg1 mi
5:20 AM61 °FCool.3 mph94%29.92 "Hg1 mi
4:20 AM61 °FCool.8 mph94%29.92 "Hg1 mi
3:20 AM61 °FCool.6 mph94%29.92 "Hg3 mi
2:20 AM63 °FMild.7 mph88%29.92 "Hg3 mi
1:20 AM63 °FMild.3 mph94%29.92 "Hg3 mi
12:20 AM63 °FMild.5 mph94%29.92 "Hg3 mi
11:20 PM
Sep 20
63 °FMild.3 mph94%29.92 "Hg3 mi
10:20 PM64 °FMild.3 mph88%29.92 "Hg2 mi
9:20 PM63 °FMild.3 mph94%29.92 "Hg2 mi
8:20 PM64 °FMild.2 mph94%29.92 "Hg3 mi
7:20 PM66 °FMild.2 mph88%29.92 "Hg4 mi
3:20 PM72 °FBroken clouds.5 mph73%29.92 "Hg4 mi
2:20 PM70 °FFog.3 mph83%29.92 "Hg3 mi
Weather by CustomWeather, © 2014

See weather overviewHow to use our weather pages